Location: Boca do Mato
(22.9085°S, 43.2930°W)
Time: 22:31:37
(UTC+00:00)

Cosmos 540 Rocket - Pass Details

Date: 14 July 2020
Orbit: 740 x 754 km, 74.1° (Epoch: 10 August)

Event Time Altitude Azimuth Distance (km) Brightness Sun altitude
Rises 08:10:17 0° 341° (NNW) 3,186 6.7 -18.9°
Reaches altitude 10° 08:12:39 10° 339° (NNW) 2,269 5.9 -18.4°
Maximum altitude 08:17:46 69° 255° (WSW) 809 3.4 -17.3°
Drops below altitude 10° 08:22:58 10° 172° (S) 2,296 5.9 -16.1°
Sets 08:25:22 0° 169° (S) 3,226 6.7 -15.6°
